Dewpoint
68 68 69 70 70 69 68 70 70 70 71 70 70 70 70 68 67 66 67 66 69 69 68 68 68 68 69 68 67 66 66 65 65
68 70 69 69 69 69 68 69 70 70 70 70 70 70 69 66 66 66 66 66 67 67 67 67 67 69 68 67 65 66 66 64 63
68 69 70 69 68 68 68 68 69 70 69 70 70 69 67 65 65 65 65 67 67 66 65 65 65 67 67 65 65 66 67 64 65
66 68 69 69 68 69 69 68 69 70 70 70 70 68 66 65 64 63 64 67 67 65 64 64 64 67 66 66 67 67 66 65 63
63 66 68 69 69 69 70 68 69 70 70 69 68 67 65 64 64 63 63 67 66 66 65 64 64 67 67 67 67 68 67 65 65
59 64 66 67 68 69 69 69 68 68 68 67 67 65 64 63 63 63 65 67 66 66 65 64 64 67 67 68 68 68 67 66 65
58 62 64 66 67 67 68 68 68 67 66 65 65 64 63 63 63 63 65 67 66 66 65 65 66 67 67 67 66 67 67 65 65
60 63 65 66 64 66 67 66 66 65 66 65 65 64 63 61 62 63 65 66 67 66 66 66 66 66 67 66 66 66 66 66 65
60 63 65 65 65 65 65 65 65 65 65 65 66 66 64 62 60 59 63 66 67 66 65 67 66 66 66 65 66 67 67 66 66
60 63 63 63 64 64 64 65 65 65 65 65 65 65 65 64 63 61 60 63 66 67 66 66 66 66 66 65 66 67 67 65 65
56 57 57 58 60 63 63 64 63 63 64 64 64 64 64 64 63 63 62 61 63 66 66 66 65 66 66 66 66 67 66 65 65
51 52 53 54 57 58 60 62 63 63 63 63 63 64 63 62 60 59 59 60 61 63 63 66 66 66 66 66 65 66 66 66 66
48 48 48 51 53 53 54 56 60 62 62 62 63 63 63 63 62 62 61 59 57 58 62 63 66 67 66 66 66 66 65 66 66
44 45 46 48 50 50 50 52 54 57 60 61 61 62 61 61 61 60 60 61 61 60 59 61 63 65 66 64 66 67 66 66 66
42 43 44 46 46 46 47 47 50 53 56 57 59 61 61 61 62 62 61 62 62 59 58 57 59 62 64 65 65 67 67 66 66
39 41 42 43 44 44 44 45 47 51 52 53 56 59 60 60 60 61 61 61 61 61 62 62 63 63 63 64 65 65 67 66 67
36 38 39 40 41 42 42 43 44 46 50 49 52 49 54 58 58 59 60 60 61 61 61 61 62 62 62 62 63 64 66 66 67
35 35 36 38 39 39 40 41 42 42 45 45 48 48 48 51 57 58 59 59 60 61 61 61 61 62 62 62 62 62 63 65 66
32 33 34 35 36 36 38 39 40 41 41 44 43 45 46 47 47 55 56 57 55 51 50 47 48 49 55 58 58 59 61 63 64
28 31 32 32 33 34 35 36 37 38 39 39 40 41 42 42 43 46 50 50 45 44 44 44 44 44 45 46 50 54 59 63 63
Lifted_Index
-4 -4 -4 -4 -4 -4 -3 -4 -4 -4 -4 -4 -4 -4 -3 -2 -2 -2 -2 -2 -2 -2 -1 -1 -1 -2 -1 -0 0 1 1 2 2
-4 -4 -4 -4 -4 -4 -3 -4 -4 -4 -4 -4 -4 -3 -3 -2 -2 -2 -2 -2 -2 -1 -1 -1 -1 -1 -1 0 1 1 1 2 2
-4 -4 -5 -4 -4 -4 -4 -4 -4 -4 -4 -4 -4 -3 -2 -2 -1 -1 -1 -1 -1 -1 -0 -0 -0 -1 -1 0 1 0 1 2 2
-3 -4 -5 -5 -4 -4 -4 -4 -4 -4 -4 -4 -4 -3 -2 -1 -1 -1 -1 -1 -1 -1 0 0 -0 -1 -0 0 0 -0 0 1 2
-3 -4 -4 -4 -4 -4 -4 -4 -4 -4 -4 -4 -4 -3 -2 -1 -1 -0 -0 -1 -1 -1 0 1 0 -1 -1 -0 -1 -1 -0 1 2
-2 -3 -4 -4 -4 -4 -4 -4 -4 -4 -4 -4 -3 -3 -2 -1 -1 -0 -0 -1 -1 -1 0 1 0 -0 -1 -1 -1 -1 -0 1 2
-2 -2 -3 -3 -4 -4 -4 -4 -4 -4 -4 -4 -3 -3 -2 -2 -1 -0 -0 -1 -1 -1 0 1 0 -0 -0 -0 -0 -0 -0 1 2
-1 -2 -3 -3 -3 -3 -3 -3 -3 -3 -4 -4 -3 -3 -2 -2 -1 -1 -0 -1 -1 -1 -0 0 0 -0 -0 0 0 0 0 1 1
-1 -2 -3 -2 -2 -2 -2 -2 -2 -3 -3 -3 -3 -3 -2 -2 -2 -1 -1 -1 -1 -1 -0 -0 -0 -0 -0 0 0 0 -0 0 1
-1 -2 -2 -2 -2 -2 -1 -1 -1 -2 -3 -3 -3 -2 -1 -1 -1 -1 -1 -0 -0 -1 -1 -1 -1 -0 -0 0 0 0 -0 0 1
-0 -1 -1 -1 -1 -1 -1 -1 -1 -2 -2 -2 -2 -2 -1 -1 -1 -1 -1 -0 0 -0 -1 -1 -1 -1 -0 0 0 0 0 0 1
1 1 0 -0 -0 -0 -0 -1 -1 -2 -2 -2 -2 -1 -1 -1 -0 -0 0 1 1 1 1 -0 -1 -1 -1 -0 -0 0 0 0 0
3 2 2 2 1 1 1 1 0 -0 -1 -1 -1 -1 -1 -1 -0 0 1 1 2 2 2 1 -0 -1 -1 -1 -1 -0 -0 0 0
5 5 4 4 3 3 3 2 2 1 1 0 -0 -1 -1 -0 -0 0 0 1 1 2 2 2 1 -0 -1 -1 -1 -1 -1 -0 -0
6 6 6 6 5 5 4 4 4 3 3 2 1 0 0 0 0 0 0 0 1 1 1 1 1 1 0 -0 -1 -2 -2 -1 -1
7 7 7 7 7 7 6 6 5 5 4 4 3 2 1 1 1 1 0 1 1 0 0 1 1 1 1 0 -1 -1 -2 -2 -2
8 8 8 8 8 8 7 7 6 6 6 5 5 4 3 2 1 1 1 1 1 1 1 0 0 0 1 0 0 -1 -1 -2 -2
9 9 9 9 9 8 8 8 7 7 7 7 6 6 5 4 2 1 1 1 1 1 1 1 1 1 1 1 1 1 -0 -1 -1
12 11 11 10 10 10 9 9 8 8 8 8 8 7 7 6 5 3 2 2 2 2 1 1 2 2 2 2 2 2 1 1 0
14 14 13 12 11 11 10 9 9 8 8 8 8 8 8 7 6 5 4 3 3 2 2 2 2 2 2 2 2 2 2 2 1